Showing default

BSAT-4A, 42951

Orbit data source: Space-Track

BSAT-4A, 42951 is a payload satellite owned by BSAT (JP) in GEO that was launched on Fri, 29 Sep 2017 UTC via an ARIANE 5ECA launch vehicle from the French Guiana (FRGUI). Payload-class satellites include a variety of spacecraft equipped with specific instruments for various scientific and technological missions. These include communications satellites like Starlink; space stations such as the ISS; scientific satellites like the Hubble; Earth observation satellites from companies like Planet Labs, Umbra, and HawkEye 360; GPS; miniature CubeSats for education and research; and military/defense satellites.

Not visible in the next 10 days
Identifier
42951, 2017-059B
Orbit
GEO
Country
Flag of JPJP / JPN
Related business
Manufacturer
SS/Loral (MDA)
Mission
Operational Commercial Communications
Bus & Motor
LS-1300, R-4D
Mass
3,520 kg wet, ~1,800 kg dry
Launch date (UTC)
2017-09-29 (8 years ago)
Launch vehicle
ARIANE 5ECA
Launch site
French Guiana (FRGUI)
Object type
Payload
Rocket body
Debris
Shape & HBR
Box + 2 Pan, 12.3 m
Radar Cross Section
33.343 m², Large (>1 m²)

Expand to show TLE details & history
Last TLE update: 15 hours ago

TLE from 15 hours ago
0 BSAT-4A
1 42951U 17059B   25260.80733932 -.00000371  00000-0  00000-0 0  9995
2 42951   0.0476   3.3463 0001149 106.9883 287.1343  1.00271951 29060
Epoch: 2025-09-17T19:22Z
TLE epoch observation values (Epoch: 2025-09-17T19:22:34.117Z)
Latitude
-0.01252°
Longitude
109.83804°
Altitude
35,784.636 km
Speed
3.075 km/s
True Right ascension
02h 29m 49s
True Declination
0° 00' 45"
Sunlit
Object was in daylight at epoch
Visualization orbit readout
Latitude
Unknown
Longitude
Unknown
Altitude
Unknown
Speed
Unknown
Apparent Right ascension
Unknown
Apparent Declination
Unknown
Sunlit
N/A
Visualization observer readout
Local Sidereal Time
03:39:16
Azimuth
Unknown
Elevation
Unknown
Doppler factor
Unknown
Orbital elements
Apogee altitude
35,792.464 km
Perigee altitude
35,782.774 km
Semi-major axis
42,165.756 km
Eccentricity
0.00011
Inclination
0.0476°
RAAN
3.3463°
Arg. of periapsis
106.9883°
True anomaly
287.12172°
Mean anomaly
287.1343°
Eccentric anomaly
287.12801°
Mean motion
0.25067 °/min
Orbital period
1,436.15 mins
BSTAR
0
Loading maneuver chart data...
Computing Atmospheric mass density...
Loading historical data...
Loading historical data...
Loading historical data...
Loading historical data...
Loading historical data...
Loading historical data...
Loading historical data...
Other satellites on launch #59 in the year 2017 (2017-09-29 UTC)

Documentation

Showing up to 5 results
|